Regional Weather Roundup
Issued by NWS

Home | Current Version | Previous Version | Text Only | Print | Product List | Glossary Off
Versions: 1 2 3 4 5 6 7 8 9 10 11 12 13 14 15 16 17 18 19 20 21 22 23 24 25 26 27 28 29 30 31 32 33 34 35 36 37 38 39 40 41 42 43 44 45 46 47 48 49 50

000
ASUS43 KLMK 171110
RWRKY
KENTUCKY REGIONAL WEATHER ROUNDUP
NATIONAL WEATHER SERVICE LOUISVILLE KY
700 AM EDT THU APR 17 2014

NOTE "FAIR" INDICATES FEW OR NO CLOUDS BELOW 12,000 FEET
WITH NO SIGNIFICANT WEATHER AND/OR OBSTRUCTIONS TO VISIBILITY.

KYZ001>023-026-027-061>063-070>075-171200-
WESTERN AND SOUTH CENTRAL KENTUCKY

CITY           SKY/WX    TMP DP  RH WIND       PRES   REMARKS
PADUCAH        CLEAR     43  31  62 S8        30.23R
HENDERSON      CLEAR     41  28  60 SE7       30.25R
OWENSBORO      CLEAR     41  33  73 S6        30.27R
HOPKINSVILLE   CLEAR     46  32  57 S7        30.28R
BOWLING GREEN  CLEAR     45  31  58 S7        30.31R
GLASGOW        PTCLDY    46  30  55 S7        30.31R
$$

KYZ024-025-028>034-038-045-046-053-171200-
NORTH CENTRAL KENTUCKY

CITY           SKY/WX    TMP DP  RH WIND       PRES   REMARKS
LOUISVILLE/SDF MOCLDY    41  29  62 SE7       30.30R
LOUISVILLE/LOU CLEAR     43  29  57 CALM      30.30R
FORT KNOX      CLEAR     40  29  64 SE3       30.28R
$$

KYZ035>037-039>044-047>052-055>060-089>105-171200-
NORTHEAST KENTUCKY

CITY           SKY/WX    TMP DP  RH WIND       PRES   REMARKS
LEXINGTON      MOCLDY    42  27  55 SE8       30.32R
COVINGTON      PTCLDY    38  24  57 S7        30.30R WCI  33
FRANKFORT      PTCLDY    37  27  67 SE3       30.30R
$$

KYZ054-064>069-076>088-106>120-171200-
SOUTHEAST KENTUCKY

CITY           SKY/WX    TMP DP  RH WIND       PRES   REMARKS
JACKSON        MOCLDY    42  21  43 SE3       30.36R
LONDON         PTCLDY    34  28  79 CALM      30.35R
SOMERSET       MOCLDY    41  28  60 CALM      30.36R
MIDDLESBORO    PTCLDY    32  29  92 CALM      30.39S
MONTICELLO     MOSUNNY   43  30  60 S9        30.35R
$$




USA.gov is the U.S. government's official web portal to all federal, state and local government web resources and services.